FW1286 Weather Reports


Display with metric or nautical units.
time (UTC)temp
F
wind
direction
speed
MPH
gust
MPH
rain 1hr
in
rain 24hr
in
rain mn
in
humidity
%
barometer
mb
20260902164314 92 166 3.0 12.0 0.00 0.00 0.00 59 1014.0
20260902163300 92 153 4.0 10.0 0.00 0.00 0.00 58 1014.1
20260902162254 91 188 6.0 10.0 0.00 0.00 0.00 58 1014.1
20260902160117 90 167 5.0 9.0 0.00 0.00 0.00 58 1014.2
20260902152905 88 172 4.0 10.0 0.00 0.00 0.00 62 1014.4
20260902151830 87 183 6.0 10.0 0.00 0.00 0.00 64 1014.4
20260902150826 87 197 6.0 9.0 0.00 0.00 0.00 67 1014.3
20260902145835 86 190 5.0 9.0 0.00 0.00 0.00 70 1014.2
20260902144833 85 169 5.0 9.0 0.00 0.00 0.00 71 1014.3
20260902143854 83 192 4.0 8.0 0.00 0.00 0.00 75 1014.3
20260902142823 83 173 4.0 7.0 0.00 0.00 0.00 76 1014.4
20260902141830 82 184 3.0 5.0 0.00 0.00 0.00 79 1014.5
20260902135621 79 186 2.0 6.0 0.00 0.00 0.00 81 1014.3
20260902134555 78 81 0.0 0.0 0.00 0.00 0.00 84 1014.3
20260902133528 77 81 0.0 0.0 0.00 0.00 0.00 86 1014.3
20260902132526 77 43 0.0 0.0 0.00 0.00 0.00 89 1014.2
20260902131521 76 43 0.0 0.0 0.00 0.00 0.00 91 1014.1
20260902125418 73 43 0.0 0.0 0.00 0.00 0.00 92 1013.9
20260902124402 72 43 1.0 4.0 0.00 0.00 0.00 92 1013.8
20260902123359 72 43 0.0 3.0 0.00 0.00 0.00 91 1013.7
20260902121224 72 43 0.0 0.0 0.00 0.00 0.00 90 1013.5
20260902120220 73 43 0.0 0.0 0.00 0.00 0.00 90 1013.5
20260902114005 73 43 0.0 0.0 0.00 0.00 0.00 89 1013.4
20260902113001 73 43 0.0 0.0 0.00 0.00 0.00 89 1013.3
20260902110842 73 43 0.0 0.0 0.00 0.00 0.00 89 1013.3
20260902103624 73 43 0.0 0.0 0.00 0.00 0.00 89 1013.2
20260902102645 74 43 0.0 0.0 0.00 0.00 0.00 88 1013.2
20260902101631 74 43 0.0 0.0 0.00 0.00 0.00 87 1013.3
20260902100626 74 43 0.0 0.0 0.00 0.00 0.00 87 1013.3
20260902095558 74 43 0.0 0.0 0.00 0.00 0.00 87 1013.4
20260902094541 74 43 0.0 0.0 0.00 0.00 0.00 86 1013.5
20260902093529 75 43 0.0 0.0 0.00 0.00 0.00 85 1013.5
20260902092533 75 43 0.0 0.0 0.00 0.00 0.00 85 1013.5
20260902090402 76 43 0.0 0.0 0.00 0.00 0.00 84 1013.6
20260902085334 76 43 0.0 0.0 0.00 0.00 0.00 83 1013.5
20260902084259 76 43 0.0 1.0 0.00 0.00 0.00 83 1013.6
20260902082159 77 43 0.0 4.0 0.00 0.00 0.00 82 1013.4
20260902081140 77 46 0.0 4.0 0.00 0.00 0.00 81 1013.5
20260902080148 77 59 0.0 3.0 0.00 0.00 0.00 81 1013.4
20260902075204 77 58 0.0 3.0 0.00 0.00 0.00 81 1013.4
20260902074216 77 55 0.0 3.0 0.00 0.00 0.00 80 1013.3
20260902073204 77 61 1.0 3.0 0.00 0.00 0.00 79 1013.5
20260902072218 78 30 1.0 4.0 0.00 0.00 0.00 79 1013.6
20260902070055 78 66 1.0 4.0 0.00 0.00 0.00 78 1013.7
20260902065035 78 57 1.0 4.0 0.00 0.00 0.00 78 1013.7
20260902064036 78 57 0.0 3.0 0.00 0.00 0.00 78 1013.9
20260902061900 78 57 0.0 3.0 0.00 0.00 0.00 79 1013.9
20260902060906 79 57 0.0 2.0 0.00 0.00 0.00 79 1013.7
20260902055925 79 57 0.0 0.0 0.00 0.00 0.00 78 1013.7
20260902054920 80 57 0.0 1.0 0.00 0.00 0.00 77 1013.6
20260902053859 80 57 0.0 3.0 0.00 0.00 0.00 77 1013.6
20260902052905 80 57 0.0 3.0 0.00 0.00 0.00 76 1013.5
20260902051846 80 57 0.0 1.0 0.00 0.00 0.00 76 1013.5
20260902050832 80 57 0.0 3.0 0.00 0.00 0.00 75 1013.4
20260902045826 81 57 0.0 3.0 0.00 0.00 0.00 74 1013.4
20260902044803 81 57 0.0 1.0 0.00 0.00 0.00 74 1013.5
20260902043732 81 57 0.0 0.0 0.00 0.00 0.00 73 1013.3
20260902042724 81 57 0.0 1.0 0.00 0.00 0.00 73 1013.3
20260902041732 81 57 0.0 1.0 0.00 0.00 0.00 72 1013.4
20260902040720 82 57 0.0 1.0 0.00 0.00 0.00 72 1013.3
20260902035728 82 57 0.0 1.0 0.00 0.00 0.00 71 1013.2
20260902033604 82 57 0.0 3.0 0.00 0.00 0.00 70 1013.2
20260902032550 83 57 0.0 3.0 0.00 0.00 0.00 69 1013.1
20260902024200 84 57 0.0 1.0 0.00 0.00 0.00 66 1012.5
20260902023218 84 57 0.0 1.0 0.00 0.00 0.00 65 1012.1
20260902022158 84 57 0.0 0.0 0.00 0.00 0.00 65 1012.0
20260902021130 85 57 0.0 0.0 0.00 0.00 0.00 64 1011.9
20260902012709 87 57 0.0 2.0 0.00 0.00 0.00 60 1011.5
20260902011726 88 57 0.0 0.0 0.00 0.00 0.00 59 1011.4
20260902004444 91 57 0.0 4.0 0.00 0.00 0.00 54 1011.3
20260902003505 92 43 1.0 6.0 0.00 0.00 0.00 53 1011.3
20260902001314 93 34 3.0 7.0 0.00 0.00 0.00 52 1011.3
20260902000337 94 37 3.0 7.0 0.00 0.00 0.00 51 1011.4
20260901235339 94 355 3.0 9.0 0.00 0.00 0.00 51 1011.3
20260901234339 95 24 4.0 9.0 0.00 0.00 0.00 50 1011.4
20260901233400 95 38 4.0 10.0 0.00 0.00 0.00 49 1011.3
20260901232423 96 24 4.0 10.0 0.00 0.00 0.00 49 1011.2
20260901231406 96 5 5.0 8.0 0.00 0.00 0.00 49 1011.2
20260901230335 96 17 3.0 9.0 0.00 0.00 0.00 48 1011.3
20260901225327 96 9 4.0 11.0 0.00 0.00 0.00 48 1011.3
20260901224309 96 44 5.0 11.0 0.00 0.00 0.00 48 1011.2
20260901223259 97 305 3.0 7.0 0.00 0.00 0.00 48 1011.1
20260901221203 96 77 5.0 12.0 0.00 0.00 0.00 49 1011.3
20260901220216 97 350 6.0 12.0 0.00 0.00 0.00 48 1011.3
20260901215225 97 22 5.0 10.0 0.00 0.00 0.00 48 1011.3
20260901214159 97 85 4.0 8.0 0.00 0.00 0.00 46 1011.3
20260901213217 97 110 3.0 8.0 0.00 0.00 0.00 46 1011.3
20260901212219 97 124 3.0 9.0 0.00 0.00 0.00 46 1011.4
20260901210051 97 117 3.0 8.0 0.00 0.00 0.00 49 1011.8
20260901202831 96 344 3.0 10.0 0.00 0.00 0.00 49 1012.3
20260901201758 96 65 2.0 10.0 0.00 0.00 0.00 50 1012.4
20260901200753 95 35 3.0 9.0 0.00 0.00 0.00 52 1012.7
20260901195741 96 319 4.0 8.0 0.00 0.00 0.00 51 1012.8
20260901194747 95 66 3.0 10.0 0.00 0.00 0.00 50 1012.9
20260901193811 95 71 4.0 10.0 0.00 0.00 0.00 50 1012.9
20260901192739 95 134 4.0 10.0 0.00 0.00 0.00 51 1013.0
20260901191759 95 79 5.0 10.0 0.00 0.00 0.00 51 1013.3
20260901185718 94 107 3.0 8.0 0.00 0.00 0.00 54 1013.7
20260901184733 93 98 2.0 6.0 0.00 0.00 0.00 55 1013.9
20260901183734 94 5 3.0 11.0 0.00 0.00 0.00 54 1014.1
20260901182757 93 32 1.0 10.0 0.00 0.00 0.00 54 1014.2
20260901181748 92 281 2.0 4.0 0.00 0.00 0.00 56 1014.3
20260901180736 94 90 1.0 11.0 0.00 0.00 0.00 55 1014.5
20260901174630 92 71 4.0 9.0 0.00 0.00 0.00 60 1014.7
20260901173654 91 338 3.0 8.0 0.00 0.00 0.00 60 1014.9
20260901171510 91 94 2.0 7.0 0.00 0.00 0.00 61 1015.2
20260901170524 91 78 2.0 7.0 0.00 0.00 0.00 61 1015.3
20260901165507 90 28 2.0 7.0 0.00 0.00 0.00 61 1015.4